[[{"header":{"parameterUnit":"m.s-1","parameterCategory":1,"la1":30.2991,"la2":30.254,"lo1":-89.0895,"lo2":-89.0444,"dy":0.0017,"dx":0.0017,"nx":28,"ny":28,"refTime":"2025-02-02T09:00:00:Z","depth":0,"parameterNumber":2,"parameterNumberName":"U-component_of_WINDS"},"data":[0,0,0,0,0,0,0,0,0,0,0,0,0,0,0,0,0,0,0,0,0,0,0,0,0,0,0,0,0,0,0,0,0,0,0,0,0,0,0,0,0,0,0,0,0,0,0,0,0,0,0,0,0,0,0,0,0,0,-1.3995,-1.3996,0,-1.404,-1.404,-1.4041,-1.4035,-1.4034,-1.4034,-1.4033,-1.408,-1.4082,-1.4084,0,0,0,0,0,0,0,0,0,0,0,0,0,-1.3906,-1.3908,-1.3995,-1.3996,-1.3996,-1.404,-1.404,-1.4041,-1.4035,-1.4034,-1.4034,-1.4033,-1.408,-1.4082,-1.4084,0,0,0,0,0,0,0,0,0,0,0,0,0,-1.3947,-1.3909,-1.3995,-1.3999,-1.3999,-1.404,-1.404,-1.4041,-1.4036,-1.4034,-1.4033,-1.4032,-1.4079,-1.4082,-1.4085,-1.4125,0,0,-1.4094,-1.4095,0,0,0,0,0,0,0,0,-1.3945,-1.3951,-1.3998,-1.3999,-1.3999,-1.4031,-1.4026,-1.4069,-1.4036,-1.4022,-1.4033,-1.4032,-1.4065,-1.4069,-1.408,-1.4127,-1.4129,-1.4094,-1.4096,-1.4097,-1.4098,0,0,0,0,0,0,0,-1.3942,-1.3949,-1.4013,-1.3998,-1.3999,-1.3999,-1.4003,-1.4035,-1.4049,-1.4023,-1.4023,-1.4028,-1.4065,-1.4077,-1.4081,-1.413,-1.4094,-1.4096,-1.4098,-1.4099,-1.4212,-1.4213,0,0,0,0,0,0,-1.3938,-1.3946,-1.4012,-1.4014,-1.3969,-1.4001,-1.4006,-1.4022,-1.4049,-1.4052,-1.4029,-1.4028,-1.4072,-1.4077,-1.4082,-1.413,-1.4097,-1.41,-1.4101,-1.421,-1.4212,-1.4213,0,0,0,0,0,0,-1.3936,-1.3944,-1.401,-1.398,-1.3989,-1.4004,-1.4021,-1.4023,-1.4035,-1.4053,-1.4056,-1.4038,-1.4072,-1.4078,-1.4114,-1.4132,-1.4101,-1.4104,-1.4209,-1.4211,-1.4212,-1.4227,0,0,0,0,0,0,-1.3934,-1.3944,-1.3959,-1.3981,-1.399,-1.404,-1.4023,-1.4025,-1.404,-1.4039,-1.4062,-1.4065,-1.4071,-1.411,-1.4117,-1.4135,-1.4106,-1.4207,-1.421,-1.4212,-1.4225,-1.4229,-1.4232,0,0,0,0,0,-1.3931,-1.3961,-1.3959,-1.3967,-1.4009,-1.4041,-1.4047,-1.4052,-1.4041,-1.4057,-1.4068,-1.4065,-1.4129,-1.4113,-1.4121,-1.4141,-1.4206,-1.4209,-1.4212,-1.4223,-1.4228,-1.4232,0,0,0,0,0,0,-1.3942,-1.3964,-1.3962,-1.4001,-1.4019,-1.404,-1.406,-1.4058,-1.408,-1.4078,-1.4085,-1.409,-1.4126,-1.4137,-1.412,-1.4181,-1.4166,-1.4171,-1.4172,-1.4177,-1.4181,-1.4177,-1.4108,0,0,0,0,0,-1.3948,-1.3972,-1.3991,-1.4023,-1.4032,-1.4044,-1.4059,-1.4061,-1.4081,-1.4089,-1.4103,-1.4122,-1.4147,-1.4163,-1.4186,-1.4227,-1.4232,-1.4244,-1.4248,-1.4251,-1.4255,-1.4276,-1.4282,-1.4222,-1.4222,-1.4222,0,0,-1.3963,-1.3978,-1.3993,-1.4026,-1.404,-1.4064,-1.4051,-1.4078,-1.4096,-1.4093,-1.4127,-1.4138,-1.416,-1.4198,-1.4216,-1.4209,-1.4273,-1.4255,-1.4257,-1.4259,-1.428,-1.4285,-1.429,-1.4224,-1.4224,-1.4223,0,0,-1.4001,-1.4015,-1.4043,-1.4058,-1.408,-1.4087,-1.4094,-1.4116,-1.4123,-1.4157,-1.4155,-1.4177,-1.422,-1.4235,-1.4249,-1.4293,-1.429,-1.4301,-1.432,-1.4341,-1.4346,-1.435,-1.4365,-1.437,-1.4304,-1.4305,-1.4305,0,-1.4016,-1.4052,-1.4058,-1.4084,-1.4099,-1.4097,-1.4125,-1.414,-1.4168,-1.4178,-1.417,-1.4223,-1.4238,-1.4279,-1.429,-1.4301,-1.4309,-1.4297,-1.4345,-1.4349,-1.4353,-1.4367,-1.4373,-1.4306,-1.4305,-1.4305,-1.4305,0,-1.4069,-1.4095,-1.4115,-1.4141,-1.4158,-1.4186,-1.4196,-1.4212,-1.4214,-1.4223,-1.4258,-1.4276,-1.4303,-1.4313,-1.4315,-1.4355,-1.4349,-1.4343,-1.4328,-1.436,-1.4373,-1.4379,-1.4307,-1.4307,-1.4306,-1.4306,0,0,-1.4115,-1.4144,-1.4151,-1.4163,-1.4187,-1.4207,-1.4235,-1.426,-1.4274,-1.4294,-1.4317,-1.4353,-1.4347,-1.4362,-1.4367,-1.4385,-1.4418,-1.4377,-1.4377,-1.4383,-1.4462,-1.4465,-1.4471,-1.4417,-1.4418,-1.4419,-1.4459,0,-1.4154,-1.4202,-1.4208,-1.425,-1.4274,-1.4272,-1.4296,-1.4314,-1.4323,-1.4345,-1.4355,-1.438,-1.4371,-1.438,-1.4398,-1.441,-1.4434,-1.4408,-1.4438,-1.4439,-1.4431,-1.4479,-1.4483,-1.452,-1.4465,-1.4466,-1.4466,0,-1.4207,-1.4227,-1.4272,-1.4292,-1.4302,-1.4323,-1.4347,-1.4368,-1.4388,-1.4393,-1.441,-1.4412,-1.4441,-1.4425,-1.4465,-1.4447,-1.446,-1.4468,-1.447,-1.4472,-1.4454,-1.4481,-1.4532,-1.4537,-1.4475,-1.4474,-1.4474,0,-1.4234,-1.4273,-1.4305,-1.4315,-1.434,-1.4355,-1.4366,-1.4385,-1.44,-1.4421,-1.443,-1.4455,-1.4468,-1.4488,-1.4496,-1.4484,-1.4535,-1.4521,-1.454,-1.454,-1.455,-1.4549,-1.4602,-1.456,-1.456,-1.456,-1.456,0,-1.4277,-1.4304,-1.4317,-1.4336,-1.4366,-1.4373,-1.4403,-1.4414,-1.4431,-1.4452,-1.4454,-1.4474,-1.4485,-1.4507,-1.4514,-1.4545,-1.4551,-1.4557,-1.4558,-1.4556,-1.4555,-1.4563,-1.4561,-1.4562,-1.4561,-1.4561,-1.4561,0,-1.4312,-1.4322,-1.4356,-1.4376,-1.4382,-1.4403,-1.4421,-1.444,-1.4449,-1.4476,-1.4483,-1.4498,-1.4524,-1.4535,-1.4567,-1.4572,-1.4607,-1.4607,-1.46,-1.46,-1.4618,-1.4616,-1.4679,-1.4687,-1.464,-1.4641,-1.4641,0,-1.4338,-1.4359,-1.4381,-1.4395,-1.4406,-1.4429,-1.4444,-1.4453,-1.4468,-1.4492,-1.4508,-1.4534,-1.4555,-1.4597,-1.461,-1.4635,-1.4635,-1.4655,-1.4639,-1.4636,-1.4634,-1.4632,-1.4634,-1.4658,-1.4658,-1.4659,-1.4659,0,-1.4383,-1.4387,-1.4408,-1.4431,-1.4448,-1.4467,-1.4485,-1.4497,-1.4508,-1.4526,-1.4552,-1.4568,-1.46,-1.4626,-1.4651,-1.4663,-1.4663,-1.4664,-1.467,-1.4667,-1.4662,-1.4664,-1.4607,-1.4663,-1.4662,-1.4662,-1.4662,-1.4662,-1.4413,-1.4431,-1.445,-1.4473,-1.4488,-1.4504,-1.4523,-1.4534,-1.4556,-1.4582,-1.4586,-1.4614,-1.4634,-1.4667,-1.4681,-1.4703,-1.4698,-1.4706,-1.4708,-1.4709,-1.471,-1.4659,-1.4708,-1.4708,-1.4707,-1.4707,-1.4707,0,-1.4457,-1.4469,-1.4491,-1.4515,-1.4534,-1.4532,-1.4552,-1.4568,-1.4592,-1.461,-1.463,-1.466,-1.4685,-1.4701,-1.4726,-1.474,-1.4741,-1.4747,-1.4745,-1.4748,-1.4714,-1.4706,-1.4746,-1.4746,-1.4746,-1.4746,-1.4746,-1.4746,-1.4482,-1.4512,-1.4518,-1.4555,-1.4567,-1.4593,-1.4605,-1.462,-1.4635,-1.4668,-1.4688,-1.4698,-1.4715,-1.4742,-1.4764,-1.4768,-1.4777,-1.4783,-1.4787,-1.4754,-1.475,-1.4746,-1.4739,-1.4785,-1.4785,-1.4818,-1.4819,-1.4819]},{"header":{"parameterUnit":"m.s-1","parameterCategory":1,"la1":30.2991,"la2":30.254,"lo1":-89.0895,"lo2":-89.0444,"dy":0.0017,"dx":0.0017,"nx":28,"ny":28,"refTime":"2025-02-02T09:00:00:Z","depth":0,"parameterNumber":3,"parameterNumberName":"V-component_of_WINDS"},"data":[0,0,0,0,0,0,0,0,0,0,0,0,0,0,0,0,0,0,0,0,0,0,0,0,0,0,0,0,0,0,0,0,0,0,0,0,0,0,0,0,0,0,0,0,0,0,0,0,0,0,0,0,0,0,0,0,0,0,1.0895,1.0895,0,1.0896,1.0896,1.0896,1.0881,1.088,1.088,1.088,1.0879,1.088,1.088,0,0,0,0,0,0,0,0,0,0,0,0,0,1.0882,1.0882,1.0895,1.0895,1.0895,1.0896,1.0896,1.0896,1.0881,1.088,1.088,1.0879,1.0879,1.088,1.088,0,0,0,0,0,0,0,0,0,0,0,0,0,1.0885,1.0882,1.0895,1.0888,1.0887,1.0896,1.0896,1.0896,1.0881,1.088,1.088,1.0879,1.0879,1.088,1.088,1.0895,0,0,1.0882,1.0882,0,0,0,0,0,0,0,0,1.0885,1.0886,1.0889,1.0888,1.0888,1.0888,1.0891,1.0895,1.0881,1.0883,1.088,1.0879,1.0883,1.0883,1.0884,1.0895,1.0895,1.0882,1.0882,1.0882,1.0883,0,0,0,0,0,0,0,1.0885,1.0886,1.0895,1.0889,1.0888,1.0885,1.0884,1.0892,1.0886,1.0883,1.0882,1.0882,1.0882,1.0884,1.0884,1.0895,1.0882,1.0882,1.0883,1.0883,1.092,1.0921,0,0,0,0,0,0,1.0886,1.0886,1.0895,1.0895,1.0885,1.0885,1.0885,1.0888,1.0886,1.0885,1.0883,1.0882,1.0883,1.0883,1.0884,1.0902,1.0882,1.0883,1.0883,1.0919,1.092,1.0921,0,0,0,0,0,0,1.0885,1.0887,1.0895,1.089,1.0891,1.0886,1.089,1.0888,1.089,1.0886,1.0885,1.0885,1.0883,1.0883,1.0893,1.0902,1.0883,1.0884,1.0919,1.092,1.0921,1.0939,0,0,0,0,0,0,1.0885,1.0887,1.0892,1.089,1.0891,1.0904,1.089,1.0889,1.0891,1.089,1.0888,1.0887,1.0882,1.0892,1.0893,1.0903,1.0884,1.0918,1.0919,1.092,1.0938,1.0941,1.0943,0,0,0,0,0,1.0885,1.0897,1.0893,1.0894,1.0898,1.0905,1.0905,1.0899,1.0892,1.0898,1.0895,1.0887,1.0901,1.0893,1.0895,1.0904,1.0917,1.0919,1.092,1.0936,1.094,1.0943,0,0,0,0,0,0,1.09,1.0897,1.0892,1.0904,1.0905,1.0902,1.0909,1.0903,1.0906,1.0905,1.0897,1.0897,1.0908,1.0907,1.0898,1.0919,1.0908,1.091,1.092,1.0923,1.0926,1.0926,1.0885,0,0,0,0,0,1.0905,1.091,1.0907,1.0918,1.0919,1.0914,1.0917,1.0912,1.0913,1.0913,1.0911,1.0912,1.0916,1.0919,1.0923,1.0937,1.0937,1.0944,1.0947,1.0949,1.0951,1.096,1.0963,1.0926,1.0926,1.0926,0,0,1.0915,1.0914,1.0918,1.0921,1.0922,1.0928,1.0915,1.0921,1.0926,1.0914,1.0923,1.0922,1.0922,1.0935,1.094,1.0934,1.0961,1.0951,1.0953,1.0954,1.0961,1.0965,1.0968,1.0927,1.0927,1.0927,0,0,1.0936,1.0936,1.0945,1.0946,1.0947,1.0943,1.0946,1.0944,1.0943,1.0953,1.0944,1.0949,1.0957,1.0958,1.0959,1.0982,1.0975,1.0983,1.0998,1.1006,1.1009,1.1012,1.1021,1.1024,1.0985,1.0985,1.0985,0,1.0948,1.0958,1.0951,1.0959,1.0961,1.0951,1.0961,1.0962,1.0963,1.0965,1.0959,1.0969,1.0968,1.0981,1.0987,1.0988,1.0991,1.0984,1.1009,1.1012,1.1014,1.1023,1.1026,1.0986,1.0986,1.0986,1.0986,0,1.0973,1.098,1.0987,1.099,1.0993,1.1002,1.0997,1.1001,1.0996,1.0994,1.1004,1.1003,1.1007,1.1009,1.1004,1.1022,1.1018,1.101,1.0999,1.1019,1.1027,1.103,1.0988,1.0987,1.0987,1.0987,0,0,1.1004,1.1004,1.1007,1.1008,1.1008,1.1013,1.1022,1.1026,1.103,1.1032,1.1039,1.1046,1.1039,1.1041,1.1036,1.1043,1.1063,1.1035,1.1035,1.1041,1.1083,1.1089,1.1093,1.1058,1.1058,1.1059,1.1083,0,1.1026,1.1041,1.1036,1.1051,1.1057,1.1048,1.1056,1.1057,1.1055,1.106,1.1058,1.1063,1.1053,1.1054,1.1061,1.1059,1.1071,1.1057,1.1065,1.1066,1.1066,1.1097,1.1104,1.1126,1.1086,1.1086,1.1087,0,1.1053,1.1057,1.1073,1.1073,1.1075,1.1082,1.1086,1.1091,1.1092,1.1091,1.1093,1.1087,1.1096,1.1084,1.1096,1.1087,1.109,1.1089,1.109,1.1091,1.1078,1.11,1.1133,1.1137,1.1091,1.1091,1.1091,0,1.1076,1.1084,1.1095,1.1097,1.1097,1.1102,1.1102,1.1103,1.1106,1.1109,1.1111,1.1115,1.1118,1.1121,1.1117,1.1108,1.113,1.1117,1.1129,1.1129,1.1135,1.1135,1.117,1.1135,1.1135,1.1135,1.1135,0,1.1101,1.1111,1.1106,1.1112,1.1124,1.1118,1.113,1.1129,1.113,1.1136,1.1128,1.1134,1.1127,1.1133,1.113,1.1141,1.1142,1.1141,1.114,1.1142,1.1142,1.1145,1.1143,1.1136,1.1136,1.1136,1.1136,0,1.1128,1.1124,1.1136,1.1135,1.1136,1.1144,1.1144,1.115,1.1148,1.1157,1.1158,1.1154,1.1161,1.1157,1.1163,1.1161,1.1176,1.1172,1.1176,1.1175,1.1187,1.1187,1.1226,1.1231,1.1192,1.1193,1.1193,0,1.1145,1.1153,1.1153,1.1158,1.1159,1.1165,1.1169,1.1163,1.1167,1.1169,1.1176,1.1181,1.1186,1.1197,1.1195,1.12,1.1197,1.1211,1.1198,1.12,1.1198,1.1198,1.12,1.1213,1.1214,1.1214,1.1215,0,1.1176,1.1174,1.1179,1.1184,1.1189,1.1192,1.1195,1.1199,1.1193,1.1198,1.1205,1.1209,1.1216,1.1222,1.1226,1.1226,1.122,1.1219,1.1222,1.1225,1.1227,1.1227,1.1184,1.1218,1.1217,1.1217,1.1217,1.1217,1.1199,1.1206,1.1208,1.1214,1.1216,1.1219,1.1226,1.1224,1.123,1.1236,1.1232,1.124,1.1242,1.1247,1.1248,1.1255,1.1249,1.1253,1.1255,1.1256,1.1258,1.1225,1.1255,1.1255,1.1255,1.1255,1.1255,0,1.123,1.1231,1.1237,1.1242,1.1247,1.124,1.1243,1.1248,1.1256,1.1258,1.1263,1.1271,1.1278,1.1276,1.1282,1.1287,1.1285,1.1289,1.1289,1.129,1.1262,1.126,1.1291,1.1291,1.1291,1.1291,1.1291,1.1291,1.1247,1.1259,1.1258,1.1271,1.1271,1.128,1.1282,1.1285,1.1287,1.1297,1.1302,1.1301,1.1302,1.1308,1.1313,1.1313,1.1316,1.1321,1.132,1.1295,1.1291,1.1288,1.1285,1.1322,1.1322,1.1347,1.1347,1.1347]}]]